GW7151 Weather Reports


time (UTC)temp
C
wind
direction
speed
KPH
gust
KPH
rain 1hr
cm
rain 24hr
cm
rain mn
cm
humidity
%
barometer
mb
20260504174832 26 63 1.6 1.6 0.00 0.00 0.00 44 1010.1
20260504174329 25 3 3.2 3.2 0.00 0.00 0.00 45 1010.2
20260504173826 25 71 3.2 3.2 0.00 0.00 0.00 43 1010.1
20260504173322 25 344 4.8 4.8 0.00 0.00 0.00 46 1010.1
20260504172820 25 19 4.8 4.8 0.00 0.00 0.00 44 1010.3
20260504172316 25 13 4.8 4.8 0.00 0.00 0.00 46 1010.4
20260504171812 26 91 3.2 3.2 0.00 0.00 0.00 44 1010.6
20260504171309 25 9 1.6 1.6 0.00 0.00 0.00 47 1010.6
20260504170806 24 55 3.2 3.2 0.00 0.00 0.00 47 1010.9
20260504170303 24 22 3.2 3.2 0.00 0.00 0.00 51 1010.9
20260504160221 22 64 3.2 3.2 0.00 0.00 0.00 51 1011.4
20260504151150 21 68 4.8 4.8 0.00 0.00 0.00 53 1011.6
20260504150647 21 79 1.6 3.2 0.00 0.00 0.00 52 1011.9
20260504150144 20 30 1.6 3.2 0.00 0.00 0.00 58 1011.8
20260504141113 17 67 1.6 1.6 0.00 0.00 0.00 66 1011.7
20260504140609 17 71 1.6 1.6 0.00 0.00 0.00 67 1011.7
20260504140105 17 63 1.6 1.6 0.00 0.00 0.00 69 1011.8
20260504130533 13 58 1.6 3.2 0.00 0.00 0.00 77 1011.8
20260504110421 8 71 0.0 0.0 0.00 0.00 0.00 91 1011.1
20260504100337 10 71 0.0 0.0 0.00 0.00 0.00 85 1011.0
20260504081731 10 69 0.0 0.0 0.00 0.00 0.00 84 1011.1
20260504081227 10 69 0.0 0.0 0.00 0.00 0.00 85 1011.1
20260504080724 10 69 0.0 0.0 0.00 0.00 0.00 84 1011.1
20260504080220 10 69 0.0 0.0 0.00 0.00 0.00 85 1011.1
20260504070148 11 69 0.0 0.0 0.00 0.00 0.00 81 1012.0
20260504060108 12 69 1.6 1.6 0.00 0.00 0.00 74 1012.4
20260504050537 12 81 0.0 0.0 0.00 0.00 0.00 78 1012.8
20260504045530 12 81 1.6 1.6 0.00 0.00 0.00 77 1012.7
20260504045026 12 81 0.0 1.6 0.00 0.00 0.00 76 1012.9
20260504044524 12 81 1.6 1.6 0.00 0.00 0.00 77 1012.7
20260504044020 12 82 0.0 0.0 0.00 0.00 0.00 80 1012.7
20260504043517 12 82 0.0 0.0 0.00 0.00 0.00 77 1012.9
20260504043015 12 82 0.0 1.6 0.00 0.00 0.00 77 1012.8
20260504042511 12 82 0.0 1.6 0.00 0.00 0.00 78 1013.0
20260504042009 12 82 0.0 0.0 0.00 0.00 0.00 80 1012.7
20260504041504 12 82 0.0 0.0 0.00 0.00 0.00 77 1012.8
20260504041000 12 82 0.0 0.0 0.00 0.00 0.00 78 1012.9
20260504040458 12 82 0.0 0.0 0.00 0.00 0.00 77 1012.9
20260504035954 12 82 0.0 0.0 0.00 0.00 0.00 77 1012.9
20260504035452 12 82 0.0 0.0 0.00 0.00 0.00 76 1012.9
20260504034948 12 82 0.0 0.0 0.00 0.00 0.00 77 1013.0
20260504034446 12 82 0.0 0.0 0.00 0.00 0.00 77 1013.0
20260504033943 12 82 0.0 0.0 0.00 0.00 0.00 78 1013.0
20260504033440 12 82 0.0 0.0 0.00 0.00 0.00 78 1013.1
20260504032937 12 82 0.0 0.0 0.00 0.00 0.00 78 1013.0
20260504032434 12 82 0.0 0.0 0.00 0.00 0.00 75 1012.9
20260504031931 12 82 0.0 0.0 0.00 0.00 0.00 75 1012.8
20260504031428 13 82 0.0 0.0 0.00 0.00 0.00 76 1013.1
20260504030925 13 82 0.0 0.0 0.00 0.00 0.00 76 1012.8
20260504030421 13 82 0.0 0.0 0.00 0.00 0.00 77 1013.1
20260504025917 13 82 0.0 0.0 0.00 0.00 0.00 78 1013.1
20260504025414 13 82 0.0 0.0 0.00 0.00 0.00 69 1013.1
20260504024911 13 82 0.0 0.0 0.00 0.00 0.00 76 1013.2
20260504024408 13 82 0.0 0.0 0.00 0.00 0.00 74 1012.9
20260504023906 13 82 0.0 0.0 0.00 0.00 0.00 74 1013.0
20260504023402 13 82 0.0 0.0 0.00 0.00 0.00 73 1012.9
20260504022857 13 82 0.0 0.0 0.00 0.00 0.00 71 1012.9
20260504022354 14 82 0.0 0.0 0.00 0.00 0.00 73 1012.8
20260504021850 14 81 0.0 0.0 0.00 0.00 0.00 70 1012.9
20260504021348 13 82 0.0 0.0 0.00 0.00 0.00 72 1012.6
20260504020845 13 81 0.0 0.0 0.00 0.00 0.00 74 1012.8
20260504020342 14 81 0.0 1.6 0.00 0.00 0.00 76 1012.6
20260504015838 14 81 0.0 0.0 0.00 0.00 0.00 72 1012.7
20260504015334 15 81 0.0 0.0 0.00 0.00 0.00 72 1012.5
20260504014830 15 81 0.0 0.0 0.00 0.00 0.00 71 1012.3
20260504014326 15 81 0.0 0.0 0.00 0.00 0.00 68 1012.4
20260504013824 15 81 0.0 0.0 0.00 0.00 0.00 72 1012.4
20260504013322 15 81 0.0 0.0 0.00 0.00 0.00 68 1012.4
20260504012818 15 81 0.0 1.6 0.00 0.00 0.00 73 1012.4
20260504012316 15 81 0.0 0.0 0.00 0.00 0.00 66 1012.3
20260504011814 16 106 0.0 1.6 0.00 0.00 0.00 64 1012.3
20260504011310 15 107 0.0 0.0 0.00 0.00 0.00 60 1011.9
20260504010805 16 107 0.0 0.0 0.00 0.00 0.00 66 1012.2
20260504010301 16 106 0.0 1.6 0.00 0.00 0.00 64 1011.9
20260504005758 16 117 0.0 0.0 0.00 0.00 0.00 61 1012.0
20260504005255 16 117 0.0 0.0 0.00 0.00 0.00 59 1012.1
20260504004753 16 117 0.0 0.0 0.00 0.00 0.00 54 1011.9
20260504004250 16 117 0.0 0.0 0.00 0.00 0.00 53 1012.2
20260504003746 17 117 0.0 0.0 0.00 0.00 0.00 59 1012.1
20260504003243 17 117 0.0 0.0 0.00 0.00 0.00 58 1012.2
20260504002740 17 117 0.0 0.0 0.00 0.00 0.00 53 1012.1
20260504002237 17 117 0.0 0.0 0.00 0.00 0.00 53 1012.2
20260504001735 17 117 0.0 0.0 0.00 0.00 0.00 53 1012.0
20260504001232 17 117 0.0 0.0 0.00 0.00 0.00 52 1011.9
20260504000728 17 117 0.0 0.0 0.00 0.00 0.00 52 1011.8
20260504000226 18 117 0.0 0.0 0.00 0.00 0.00 51 1011.8
20260503235724 18 117 0.0 0.0 0.00 0.00 0.00 50 1011.9
20260503235220 18 117 0.0 0.0 0.00 0.00 0.00 51 1012.0
20260503234718 18 117 0.0 0.0 0.00 0.00 0.00 50 1011.9
20260503234216 18 117 0.0 0.0 0.00 0.00 0.00 50 1012.2
20260503233713 19 118 0.0 0.0 0.00 0.00 0.00 50 1012.1
20260503233208 19 118 0.0 0.0 0.00 0.00 0.00 46 1012.0
20260503232705 19 118 0.0 0.0 0.00 0.00 0.00 46 1012.3
20260503232202 19 136 0.0 0.0 0.00 0.00 0.00 52 1012.1
20260503231701 20 114 0.0 0.0 0.00 0.00 0.00 44 1012.4
20260503231156 20 115 1.6 1.6 0.00 0.00 0.00 48 1012.3
20260503230653 20 102 0.0 0.0 0.00 0.00 0.00 48 1012.3
20260503230151 20 91 0.0 0.0 0.00 0.00 0.00 47 1012.3
20260503225648 20 101 0.0 1.6 0.00 0.00 0.00 44 1012.0
20260503225148 20 127 0.0 0.0 0.00 0.00 0.00 42 1012.3
20260503224645 21 77 1.6 1.6 0.00 0.00 0.00 37 1012.5
20260503224143 21 97 0.0 1.6 0.00 0.00 0.00 38 1012.4
20260503223641 21 70 1.6 3.2 0.00 0.00 0.00 40 1012.3
20260503223137 21 137 0.0 0.0 0.00 0.00 0.00 45 1012.5
20260503222634 21 18 1.6 3.2 0.00 0.00 0.00 38 1012.4
20260503222132 21 132 1.6 3.2 0.00 0.00 0.00 41 1012.5
20260503221631 21 110 0.0 0.0 0.00 0.00 0.00 40 1012.4
20260503221127 21 124 0.0 0.0 0.00 0.00 0.00 41 1012.4
20260503220624 21 131 0.0 1.6 0.00 0.00 0.00 39 1012.5
20260503220121 21 113 0.0 1.6 0.00 0.00 0.00 45 1012.7
20260503215618 21 75 1.6 1.6 0.00 0.00 0.00 40 1012.6
20260503215114 21 131 1.6 3.2 0.00 0.00 0.00 41 1012.5
20260503214613 21 128 1.6 1.6 0.00 0.00 0.00 40 1012.6
20260503214109 21 116 0.0 1.6 0.00 0.00 0.00 42 1012.8
20260503213608 21 75 1.6 1.6 0.00 0.00 0.00 40 1012.9
20260503213104 21 272 0.0 0.0 0.00 0.00 0.00 39 1012.9
20260503212602 21 138 0.0 0.0 0.00 0.00 0.00 37 1013.0
20260503212059 21 132 1.6 1.6 0.00 0.00 0.00 38 1013.2
20260503211556 21 74 3.2 3.2 0.00 0.00 0.00 37 1013.0
20260503211051 21 125 1.6 1.6 0.00 0.00 0.00 40 1013.2
20260503210548 21 313 1.6 3.2 0.00 0.00 0.00 36 1013.4
20260503210044 21 129 0.0 1.6 0.00 0.00 0.00 39 1013.5
20260503205541 21 87 0.0 1.6 0.00 0.00 0.00 39 1013.5
20260503205037 21 81 1.6 1.6 0.00 0.00 0.00 41 1013.6
20260503204534 21 175 4.8 4.8 0.00 0.00 0.00 34 1013.6
20260503204031 21 61 1.6 1.6 0.00 0.00 0.00 38 1013.8
20260503203529 21 113 0.0 1.6 0.00 0.00 0.00 39 1013.7
20260503203026 21 139 1.6 1.6 0.00 0.00 0.00 40 1014.0
20260503202523 21 82 1.6 1.6 0.00 0.00 0.00 39 1013.9
20260503202021 22 40 4.8 4.8 0.00 0.00 0.00 40 1014.0
20260503201519 21 47 4.8 4.8 0.00 0.00 0.00 37 1014.3
20260503201016 21 143 1.6 1.6 0.00 0.00 0.00 38 1014.5
20260503200512 21 106 0.0 0.0 0.00 0.00 0.00 37 1014.5
20260503200009 22 114 3.2 4.8 0.00 0.00 0.00 34 1014.4
20260503195506 22 0 4.8 4.8 0.00 0.00 0.00 36 1014.8
20260503195003 22 92 1.6 1.6 0.00 0.00 0.00 34 1014.7
20260503194500 21 112 0.0 1.6 0.00 0.00 0.00 38 1015.1
20260503193955 21 115 3.2 3.2 0.00 0.00 0.00 35 1015.2
20260503193451 21 151 3.2 3.2 0.00 0.00 0.00 36 1015.1
20260503192946 22 278 0.0 0.0 0.00 0.00 0.00 35 1015.2
20260503192443 22 160 3.2 3.2 0.00 0.00 0.00 38 1015.3
20260503191938 21 66 1.6 1.6 0.00 0.00 0.00 38 1015.2
20260503191437 22 32 4.8 4.8 0.00 0.00 0.00 35 1015.5
20260503190932 22 176 1.6 3.2 0.00 0.00 0.00 39 1015.4
20260503190430 22 55 4.8 4.8 0.00 0.00 0.00 34 1015.4
20260503185927 22 339 3.2 4.8 0.00 0.00 0.00 36 1015.7
20260503185423 22 103 1.6 1.6 0.00 0.00 0.00 33 1015.7
20260503184922 21 40 1.6 3.2 0.00 0.00 0.00 36 1015.9
20260503184420 21 100 1.6 1.6 0.00 0.00 0.00 34 1015.8
20260503183916 21 122 4.8 4.8 0.00 0.00 0.00 34 1015.9
20260503183412 22 138 3.2 4.8 0.00 0.00 0.00 38 1015.9
20260503182909 21 92 1.6 1.6 0.00 0.00 0.00 37 1016.2
20260503182409 21 164 4.8 4.8 0.00 0.00 0.00 35 1016.2
20260503181905 21 169 3.2 4.8 0.00 0.00 0.00 35 1016.1
20260503181402 21 122 3.2 4.8 0.00 0.00 0.00 36 1016.2
20260503180859 21 150 4.8 9.7 0.00 0.00 0.00 37 1016.2
20260503180357 21 99 1.6 3.2 0.00 0.00 0.00 37 1016.5
20260503175853 22 134 1.6 4.8 0.00 0.00 0.00 36 1016.7
20260503175351 22 62 3.2 3.2 0.00 0.00 0.00 38 1016.6